| time (UTC) | temp F | wind direction | speed knots | gust knots | rain 1hr in | rain 24hr in | rain mn in | humidity % | barometer mb |
| 20260507214535 | 64 | 294 | 0.0 | 2.6 | 0.00 | 0.50 | 0.00 | 65 | 1006.7 |
| 20260507214055 | 65 | 178 | 0.9 | 2.6 | 0.00 | 0.50 | 0.00 | 61 | 1006.7 |
| 20260507213517 | 65 | 80 | 0.0 | 1.7 | 0.00 | 0.50 | 0.00 | 62 | 1006.7 |
| 20260507213103 | 65 | 294 | 0.9 | 4.3 | 0.00 | 0.50 | 0.00 | 59 | 1006.6 |
| 20260507212512 | 65 | 145 | 0.9 | 3.5 | 0.00 | 0.50 | 0.00 | 61 | 1006.5 |
| 20260507212049 | 65 | 297 | 0.0 | 1.7 | 0.00 | 0.50 | 0.00 | 61 | 1006.5 |
| 20260507211525 | 66 | 76 | 0.0 | 2.6 | 0.00 | 0.50 | 0.00 | 60 | 1006.5 |
| 20260507211058 | 66 | 317 | 0.0 | 2.6 | 0.00 | 0.50 | 0.00 | 61 | 1006.6 |
| 20260507211007 | 66 | 82 | 0.0 | 2.6 | 0.00 | 0.50 | 0.00 | 63 | 1006.6 |
| 20260507210539 | 66 | 105 | 0.0 | 3.5 | 0.00 | 0.50 | 0.00 | 59 | 1006.5 |
| 20260507210008 | 66 | 30 | 0.0 | 3.5 | 0.00 | 0.50 | 0.00 | 61 | 1006.5 |
| 20260507205546 | 65 | 231 | 0.9 | 3.5 | 0.00 | 0.50 | 0.00 | 59 | 1006.5 |
| 20260507205008 | 65 | 30 | 0.0 | 3.5 | 0.00 | 0.50 | 0.00 | 60 | 1006.5 |
| 20260507204540 | 65 | 109 | 0.0 | 2.6 | 0.00 | 0.50 | 0.00 | 61 | 1006.5 |
| 20260507204056 | 65 | 98 | 0.0 | 3.5 | 0.00 | 0.50 | 0.00 | 60 | 1006.5 |
| 20260507203534 | 65 | 319 | 1.7 | 3.5 | 0.00 | 0.50 | 0.00 | 60 | 1006.6 |
| 20260507203017 | 65 | 273 | 0.9 | 3.5 | 0.00 | 0.50 | 0.00 | 59 | 1006.6 |
| 20260507202554 | 64 | 91 | 0.0 | 3.5 | 0.00 | 0.50 | 0.00 | 60 | 1006.6 |
| 20260507202014 | 64 | 290 | 0.0 | 4.3 | 0.00 | 0.50 | 0.00 | 59 | 1006.6 |
| 20260507201549 | 64 | 296 | 1.7 | 4.3 | 0.00 | 0.50 | 0.00 | 60 | 1006.6 |
| 20260507201029 | 63 | 221 | 0.9 | 2.6 | 0.00 | 0.50 | 0.00 | 61 | 1006.6 |
| 20260507200508 | 63 | 303 | 0.0 | 2.6 | 0.00 | 0.50 | 0.00 | 59 | 1006.8 |
| 20260507200038 | 63 | 284 | 0.0 | 2.6 | 0.00 | 0.50 | 0.00 | 59 | 1006.9 |
| 20260507195516 | 63 | 297 | 0.0 | 2.6 | 0.00 | 0.50 | 0.00 | 59 | 1006.9 |
| 20260507195050 | 62 | 74 | 0.0 | 0.9 | 0.00 | 0.50 | 0.00 | 59 | 1007.0 |
| 20260507194559 | 62 | 114 | 0.0 | 3.5 | 0.00 | 0.50 | 0.00 | 59 | 1007.1 |
| 20260507194007 | 62 | 350 | 0.9 | 3.5 | 0.00 | 0.50 | 0.00 | 57 | 1007.1 |
| 20260507193542 | 62 | 55 | 0.0 | 1.7 | 0.00 | 0.50 | 0.00 | 59 | 1007.1 |
| 20260507193028 | 62 | 75 | 0.0 | 2.6 | 0.00 | 0.50 | 0.00 | 59 | 1007.3 |
| 20260507192559 | 62 | 81 | 0.9 | 2.6 | 0.00 | 0.50 | 0.00 | 58 | 1007.4 |
| 20260507192040 | 62 | 85 | 0.0 | 2.6 | 0.00 | 0.50 | 0.00 | 59 | 1007.3 |
| 20260507191529 | 62 | 176 | 0.0 | 1.7 | 0.00 | 0.50 | 0.00 | 59 | 1007.6 |
| 20260507191052 | 62 | 134 | 0.0 | 1.7 | 0.00 | 0.50 | 0.00 | 61 | 1007.7 |
| 20260507190528 | 61 | 146 | 0.0 | 2.6 | 0.00 | 0.50 | 0.00 | 61 | 1007.7 |
| 20260507190011 | 61 | 252 | 0.0 | 2.6 | 0.00 | 0.50 | 0.00 | 61 | 1007.7 |
| 20260507185547 | 61 | 92 | 0.0 | 3.5 | 0.00 | 0.50 | 0.00 | 59 | 1007.8 |
| 20260507185028 | 61 | 265 | 0.0 | 3.5 | 0.00 | 0.50 | 0.00 | 60 | 1007.9 |
| 20260507184506 | 62 | 288 | 0.0 | 1.7 | 0.00 | 0.50 | 0.00 | 59 | 1007.9 |
| 20260507184042 | 61 | 119 | 0.0 | 1.7 | 0.00 | 0.50 | 0.00 | 62 | 1007.9 |
| 20260507183524 | 61 | 98 | 0.0 | 3.5 | 0.00 | 0.50 | 0.00 | 63 | 1007.9 |
| 20260507183058 | 62 | 115 | 0.0 | 3.5 | 0.00 | 0.50 | 0.00 | 60 | 1007.8 |
| 20260507182540 | 62 | 21 | 0.0 | 1.7 | 0.00 | 0.50 | 0.00 | 58 | 1007.8 |
| 20260507182017 | 63 | 26 | 0.0 | 1.7 | 0.00 | 0.50 | 0.00 | 58 | 1008.0 |
| 20260507181553 | 63 | 345 | 0.0 | 1.7 | 0.00 | 0.50 | 0.00 | 58 | 1007.9 |
| 20260507181030 | 62 | 229 | 0.0 | 3.5 | 0.00 | 0.50 | 0.00 | 59 | 1008.0 |
| 20260507180601 | 62 | 311 | 0.9 | 5.2 | 0.00 | 0.50 | 0.00 | 62 | 1008.1 |
| 20260507180504 | 62 | 238 | 0.9 | 5.2 | 0.00 | 0.50 | 0.00 | 58 | 1008.1 |
| 20260507180037 | 62 | 215 | 0.9 | 5.2 | 0.00 | 0.50 | 0.00 | 64 | 1008.2 |
| 20260507175517 | 61 | 9 | 0.0 | 2.6 | 0.00 | 0.50 | 0.00 | 61 | 1008.2 |
| 20260507175046 | 60 | 264 | 0.9 | 2.6 | 0.00 | 0.50 | 0.00 | 61 | 1008.3 |
| 20260507174526 | 60 | 119 | 0.0 | 1.7 | 0.00 | 0.50 | 0.00 | 62 | 1008.5 |
| 20260507174004 | 59 | 43 | 0.0 | 3.5 | 0.00 | 0.50 | 0.00 | 61 | 1008.6 |
| 20260507173540 | 59 | 190 | 1.7 | 3.5 | 0.00 | 0.50 | 0.00 | 61 | 1008.7 |
| 20260507173029 | 59 | 144 | 0.9 | 3.5 | 0.00 | 0.50 | 0.00 | 62 | 1008.7 |
| 20260507172557 | 59 | 84 | 0.9 | 3.5 | 0.00 | 0.50 | 0.00 | 66 | 1008.8 |
| 20260507172039 | 58 | 194 | 0.0 | 2.6 | 0.00 | 0.50 | 0.00 | 67 | 1008.8 |
| 20260507171538 | 58 | 91 | 0.0 | 3.5 | 0.00 | 0.50 | 0.00 | 66 | 1009.0 |
| 20260507171058 | 58 | 156 | 0.9 | 3.5 | 0.00 | 0.50 | 0.00 | 66 | 1009.1 |
| 20260507171002 | 58 | 87 | 0.9 | 4.3 | 0.00 | 0.50 | 0.00 | 65 | 1009.1 |
| 20260507170538 | 58 | 101 | 0.9 | 2.6 | 0.00 | 0.50 | 0.00 | 66 | 1009.1 |
| 20260507170016 | 58 | 285 | 0.0 | 2.6 | 0.00 | 0.50 | 0.00 | 65 | 1009.3 |
| 20260507165536 | 57 | 133 | 0.9 | 2.6 | 0.00 | 0.50 | 0.00 | 66 | 1009.3 |
| 20260507165012 | 58 | 26 | 0.0 | 2.6 | 0.00 | 0.50 | 0.00 | 65 | 1009.3 |
| 20260507164553 | 58 | 78 | 0.0 | 5.2 | 0.00 | 0.50 | 0.00 | 64 | 1009.4 |
| 20260507164028 | 58 | 239 | 2.6 | 5.2 | 0.00 | 0.50 | 0.00 | 67 | 1009.4 |
| 20260507163506 | 57 | 10 | 0.0 | 2.6 | 0.00 | 0.50 | 0.00 | 69 | 1009.4 |
| 20260507163047 | 57 | 213 | 0.0 | 1.7 | 0.00 | 0.50 | 0.00 | 69 | 1009.6 |
| 20260507162522 | 56 | 299 | 0.0 | 3.5 | 0.00 | 0.50 | 0.00 | 72 | 1009.7 |
| 20260507162058 | 55 | 11 | 0.9 | 3.5 | 0.00 | 0.50 | 0.00 | 71 | 1009.8 |
| 20260507161553 | 55 | 80 | 1.7 | 3.5 | 0.00 | 0.50 | 0.00 | 69 | 1009.9 |
| 20260507161018 | 55 | 5 | 0.0 | 3.5 | 0.00 | 0.50 | 0.00 | 72 | 1010.0 |
| 20260507160550 | 55 | 299 | 0.0 | 3.5 | 0.00 | 0.50 | 0.00 | 71 | 1010.1 |
| 20260507160037 | 55 | 355 | 0.0 | 1.7 | 0.00 | 0.50 | 0.00 | 75 | 1010.2 |
| 20260507155511 | 55 | 302 | 0.0 | 3.5 | 0.00 | 0.50 | 0.00 | 73 | 1010.4 |
| 20260507155044 | 54 | 234 | 0.9 | 3.5 | 0.00 | 0.50 | 0.00 | 74 | 1010.5 |
| 20260507154521 | 54 | 73 | 0.9 | 2.6 | 0.00 | 0.50 | 0.00 | 72 | 1010.5 |
| 20260507154044 | 54 | 350 | 0.9 | 2.6 | 0.00 | 0.50 | 0.00 | 73 | 1010.6 |
| 20260507153521 | 54 | 345 | 0.0 | 5.2 | 0.00 | 0.50 | 0.00 | 74 | 1010.5 |
| 20260507153049 | 54 | 75 | 0.0 | 5.2 | 0.00 | 0.50 | 0.00 | 74 | 1010.5 |
| 20260507152526 | 53 | 101 | 0.9 | 3.5 | 0.00 | 0.50 | 0.00 | 75 | 1010.3 |
| 20260507152058 | 53 | 9 | 0.0 | 1.7 | 0.00 | 0.50 | 0.00 | 75 | 1010.5 |
| 20260507151540 | 53 | 340 | 0.0 | 5.2 | 0.00 | 0.50 | 0.00 | 78 | 1010.5 |
| 20260507151015 | 53 | 87 | 0.0 | 5.2 | 0.00 | 0.50 | 0.00 | 78 | 1010.6 |
| 20260507150549 | 52 | 5 | 0.0 | 3.5 | 0.00 | 0.50 | 0.00 | 79 | 1010.5 |
| 20260507150030 | 52 | 25 | 0.9 | 3.5 | 0.00 | 0.50 | 0.00 | 80 | 1010.8 |
| 20260507145600 | 52 | 24 | 0.0 | 3.5 | 0.00 | 0.50 | 0.00 | 80 | 1010.9 |
| 20260507145509 | 52 | 53 | 0.0 | 3.5 | 0.00 | 0.50 | 0.00 | 80 | 1010.9 |
| 20260507145041 | 52 | 320 | 0.0 | 3.5 | 0.00 | 0.50 | 0.00 | 81 | 1010.8 |
| 20260507144601 | 52 | 68 | 0.0 | 1.7 | 0.00 | 0.50 | 0.50 | 81 | 1010.9 |
| 20260507144505 | 52 | 71 | 0.0 | 1.7 | 0.00 | 0.50 | 0.50 | 81 | 1010.9 |
| 20260507144039 | 52 | 59 | 0.0 | 1.7 | 0.00 | 0.50 | 0.50 | 82 | 1010.9 |
| 20260507143521 | 52 | 9 | 0.0 | 4.3 | 0.00 | 0.50 | 0.50 | 83 | 1010.8 |
| 20260507143054 | 52 | 5 | 1.7 | 4.3 | 0.00 | 0.50 | 0.50 | 83 | 1010.9 |
| 20260507142530 | 52 | 81 | 0.0 | 2.6 | 0.00 | 0.50 | 0.50 | 84 | 1011.2 |
| 20260507142012 | 52 | 68 | 0.0 | 0.9 | 0.00 | 0.50 | 0.50 | 84 | 1011.2 |
| 20260507141604 | 52 | 78 | 0.0 | 1.7 | 0.00 | 0.50 | 0.50 | 85 | 1011.2 |
| 20260507141013 | 52 | 82 | 0.0 | 1.7 | 0.00 | 0.50 | 0.50 | 84 | 1011.3 |
| 20260507140549 | 52 | 82 | 0.0 | 2.6 | 0.00 | 0.50 | 0.50 | 83 | 1011.3 |
| 20260507140029 | 52 | 74 | 0.9 | 2.6 | 0.00 | 0.50 | 0.50 | 83 | 1011.3 |
| 20260507135507 | 52 | 92 | 0.0 | 2.6 | 0.00 | 0.50 | 0.50 | 83 | 1011.3 |
| 20260507135043 | 52 | 86 | 0.0 | 2.6 | 0.00 | 0.50 | 0.50 | 84 | 1011.3 |
| 20260507134520 | 52 | 74 | 0.0 | 2.6 | 0.00 | 0.50 | 0.50 | 84 | 1011.3 |
| 20260507134058 | 52 | 360 | 0.0 | 2.6 | 0.00 | 0.50 | 0.50 | 84 | 1011.3 |
| 20260507134001 | 52 | 355 | 0.0 | 0.9 | 0.00 | 0.50 | 0.50 | 84 | 1011.3 |
| 20260507133523 | 52 | 47 | 0.0 | 1.7 | 0.00 | 0.50 | 0.50 | 84 | 1011.3 |
| 20260507133105 | 52 | 22 | 0.0 | 1.7 | 0.00 | 0.50 | 0.50 | 84 | 1011.3 |
| 20260507133001 | 52 | 63 | 0.0 | 1.7 | 0.00 | 0.50 | 0.50 | 84 | 1011.4 |
| 20260507132535 | 52 | 78 | 0.0 | 2.6 | 0.00 | 0.50 | 0.50 | 84 | 1011.3 |
| 20260507132015 | 52 | 350 | 0.0 | 2.6 | 0.00 | 0.50 | 0.50 | 84 | 1011.3 |
| 20260507131545 | 52 | 350 | 0.0 | 1.7 | 0.00 | 0.50 | 0.50 | 85 | 1011.3 |
| 20260507131021 | 52 | 312 | 0.0 | 0.9 | 0.00 | 0.50 | 0.50 | 86 | 1011.4 |
| 20260507130550 | 51 | 312 | 0.0 | 2.6 | 0.00 | 0.50 | 0.50 | 85 | 1011.5 |
| 20260507130028 | 51 | 263 | 0.9 | 2.6 | 0.00 | 0.50 | 0.50 | 85 | 1011.5 |
| 20260507125509 | 51 | 67 | 0.0 | 0.9 | 0.00 | 0.50 | 0.50 | 85 | 1011.5 |
| 20260507125030 | 51 | 288 | 0.0 | 0.0 | 0.00 | 0.50 | 0.50 | 85 | 1011.5 |
| 20260507124548 | 51 | 287 | 0.0 | 0.0 | 0.00 | 0.57 | 0.50 | 86 | 1011.4 |
| 20260507124009 | 51 | 287 | 0.0 | 0.0 | 0.00 | 0.57 | 0.50 | 86 | 1011.5 |
| 20260507123545 | 51 | 287 | 0.0 | 0.0 | 0.00 | 0.57 | 0.50 | 86 | 1011.4 |
| 20260507123006 | 51 | 287 | 0.0 | 0.0 | 0.00 | 0.57 | 0.50 | 86 | 1011.3 |
| 20260507122542 | 51 | 287 | 0.0 | 0.9 | 0.00 | 0.57 | 0.50 | 86 | 1011.3 |
| 20260507122005 | 51 | 287 | 0.0 | 0.9 | 0.00 | 0.57 | 0.50 | 86 | 1011.3 |
| 20260507121527 | 51 | 287 | 0.0 | 0.9 | 0.00 | 0.57 | 0.50 | 86 | 1011.2 |
| 20260507121058 | 51 | 5 | 0.0 | 1.7 | 0.00 | 0.57 | 0.50 | 87 | 1011.0 |
| 20260507121005 | 51 | 5 | 0.0 | 1.7 | 0.00 | 0.57 | 0.50 | 86 | 1010.9 |
| 20260507120540 | 51 | 29 | 0.0 | 1.7 | 0.00 | 0.57 | 0.50 | 86 | 1010.8 |
| 20260507120036 | 51 | 145 | 0.0 | 0.9 | 0.00 | 0.57 | 0.50 | 87 | 1010.9 |
| 20260507115551 | 51 | 145 | 0.0 | 0.9 | 0.00 | 0.57 | 0.50 | 87 | 1010.9 |
| 20260507115026 | 51 | 103 | 0.0 | 0.9 | 0.00 | 0.57 | 0.50 | 87 | 1010.9 |
| 20260507114615 | 51 | 103 | 0.0 | 0.9 | 0.00 | 0.59 | 0.50 | 87 | 1010.9 |
| 20260507114505 | 51 | 103 | 0.0 | 0.9 | 0.00 | 0.59 | 0.50 | 88 | 1010.9 |
| 20260507114034 | 51 | 107 | 0.0 | 0.9 | 0.00 | 0.59 | 0.50 | 88 | 1010.9 |
| 20260507113514 | 51 | 98 | 0.0 | 0.9 | 0.00 | 0.59 | 0.50 | 88 | 1010.7 |
| 20260507113041 | 51 | 98 | 0.0 | 0.9 | 0.00 | 0.59 | 0.50 | 88 | 1010.7 |
| 20260507112515 | 51 | 98 | 0.0 | 0.9 | 0.00 | 0.59 | 0.50 | 88 | 1010.9 |
| 20260507112036 | 51 | 98 | 0.0 | 0.0 | 0.00 | 0.59 | 0.50 | 90 | 1010.8 |
| 20260507111517 | 51 | 98 | 0.0 | 0.0 | 0.00 | 0.59 | 0.50 | 90 | 1010.7 |
| 20260507111048 | 51 | 98 | 0.0 | 0.0 | 0.00 | 0.59 | 0.50 | 91 | 1010.8 |
| 20260507110526 | 51 | 98 | 0.0 | 0.0 | 0.00 | 0.59 | 0.50 | 91 | 1010.5 |
| 20260507110007 | 51 | 98 | 0.0 | 0.0 | 0.00 | 0.59 | 0.50 | 90 | 1010.4 |
| 20260507105536 | 51 | 98 | 0.0 | 0.0 | 0.00 | 0.59 | 0.50 | 91 | 1010.4 |
| 20260507105054 | 51 | 98 | 0.0 | 0.0 | 0.00 | 0.59 | 0.50 | 91 | 1010.3 |
| 20260507104531 | 50 | 98 | 0.0 | 0.0 | 0.00 | 0.59 | 0.50 | 90 | 1010.3 |
| 20260507104009 | 51 | 98 | 0.0 | 0.0 | 0.00 | 0.59 | 0.50 | 90 | 1010.2 |
| 20260507103531 | 51 | 98 | 0.0 | 0.0 | 0.00 | 0.59 | 0.50 | 90 | 1010.1 |
| 20260507103010 | 51 | 98 | 0.0 | 0.0 | 0.00 | 0.59 | 0.50 | 91 | 1010.3 |
| 20260507102550 | 51 | 98 | 0.0 | 0.0 | 0.00 | 0.59 | 0.50 | 91 | 1010.4 |
| 20260507102036 | 51 | 98 | 0.0 | 0.0 | 0.00 | 0.59 | 0.50 | 91 | 1010.3 |
| 20260507101521 | 51 | 99 | 0.0 | 0.0 | 0.00 | 0.59 | 0.50 | 91 | 1010.3 |
| 20260507101006 | 51 | 99 | 0.0 | 0.0 | 0.00 | 0.59 | 0.50 | 89 | 1010.4 |
| 20260507100530 | 51 | 99 | 0.0 | 0.0 | 0.00 | 0.59 | 0.50 | 89 | 1010.4 |
| 20260507100053 | 51 | 99 | 0.0 | 0.0 | 0.00 | 0.59 | 0.50 | 89 | 1010.3 |
| 20260507095532 | 51 | 93 | 0.0 | 0.0 | 0.00 | 0.59 | 0.50 | 90 | 1010.2 |
| 20260507095018 | 51 | 93 | 0.0 | 0.0 | 0.00 | 0.59 | 0.50 | 89 | 1010.0 |
| 20260507094549 | 51 | 93 | 0.0 | 0.0 | 0.00 | 0.59 | 0.50 | 90 | 1010.1 |
| 20260507094026 | 51 | 93 | 0.0 | 0.0 | 0.00 | 0.59 | 0.50 | 89 | 1010.0 |
| 20260507093510 | 51 | 93 | 0.0 | 0.0 | 0.00 | 0.59 | 0.50 | 90 | 1010.2 |
| 20260507093048 | 51 | 93 | 0.0 | 0.0 | 0.00 | 0.59 | 0.50 | 91 | 1010.0 |
| 20260507092514 | 51 | 93 | 0.0 | 0.0 | 0.00 | 0.59 | 0.50 | 90 | 1010.1 |
| 20260507092039 | 51 | 93 | 0.0 | 0.0 | 0.00 | 0.59 | 0.50 | 91 | 1010.0 |
| 20260507091506 | 51 | 93 | 0.0 | 0.0 | 0.00 | 0.59 | 0.50 | 91 | 1009.9 |
| 20260507091034 | 51 | 93 | 0.0 | 0.0 | 0.00 | 0.59 | 0.50 | 92 | 1010.0 |
| 20260507090510 | 51 | 93 | 0.0 | 0.0 | 0.00 | 0.59 | 0.50 | 91 | 1010.1 |
| 20260507090030 | 51 | 93 | 0.0 | 0.9 | 0.00 | 0.59 | 0.50 | 92 | 1010.0 |
| 20260507085546 | 51 | 93 | 0.0 | 0.9 | 0.00 | 0.59 | 0.50 | 91 | 1009.9 |
| 20260507085008 | 51 | 93 | 0.0 | 1.7 | 0.00 | 0.59 | 0.50 | 90 | 1009.7 |
| 20260507084536 | 51 | 93 | 0.0 | 1.7 | 0.00 | 0.59 | 0.50 | 91 | 1009.7 |
| 20260507084012 | 51 | 93 | 0.0 | 1.7 | 0.00 | 0.59 | 0.50 | 91 | 1009.7 |
| 20260507083532 | 51 | 74 | 0.0 | 0.9 | 0.00 | 0.59 | 0.50 | 90 | 1009.6 |
| 20260507083050 | 51 | 74 | 0.0 | 0.9 | 0.00 | 0.59 | 0.50 | 90 | 1009.7 |
| 20260507082517 | 51 | 75 | 0.0 | 0.9 | 0.00 | 0.59 | 0.50 | 90 | 1009.7 |
| 20260507082048 | 51 | 75 | 0.0 | 2.6 | 0.00 | 0.59 | 0.50 | 91 | 1009.9 |
| 20260507081506 | 52 | 75 | 0.9 | 2.6 | 0.00 | 0.59 | 0.50 | 90 | 1009.8 |
| 20260507081026 | 52 | 54 | 0.0 | 1.7 | 0.00 | 0.59 | 0.50 | 91 | 1010.0 |
| 20260507080544 | 52 | 93 | 0.0 | 1.7 | 0.00 | 0.59 | 0.50 | 91 | 1010.1 |
| 20260507080018 | 52 | 5 | 0.0 | 1.7 | 0.00 | 0.59 | 0.50 | 91 | 1010.2 |
| 20260507075540 | 52 | 131 | 0.0 | 0.9 | 0.00 | 0.59 | 0.50 | 92 | 1010.0 |
| 20260507075058 | 52 | 100 | 0.0 | 0.9 | 0.00 | 0.59 | 0.50 | 91 | 1009.9 |
| 20260507074529 | 52 | 83 | 0.0 | 0.9 | 0.00 | 0.59 | 0.50 | 91 | 1009.9 |
| 20260507074055 | 52 | 83 | 0.0 | 1.7 | 0.00 | 0.59 | 0.50 | 91 | 1009.9 |
| 20260507073514 | 52 | 83 | 0.0 | 1.7 | 0.00 | 0.59 | 0.50 | 90 | 1009.9 |
| 20260507073034 | 52 | 16 | 0.0 | 0.9 | 0.00 | 0.59 | 0.50 | 91 | 1009.7 |
| 20260507072550 | 52 | 16 | 0.0 | 0.9 | 0.00 | 0.59 | 0.50 | 91 | 1009.6 |
| 20260507072023 | 52 | 15 | 0.0 | 1.7 | 0.00 | 0.59 | 0.50 | 91 | 1009.3 |
| 20260507071558 | 53 | 15 | 0.0 | 3.5 | 0.00 | 0.59 | 0.50 | 91 | 1009.2 |
| 20260507071032 | 53 | 80 | 0.9 | 3.5 | 0.00 | 0.59 | 0.50 | 91 | 1009.2 |
| 20260507070516 | 53 | 30 | 0.0 | 1.7 | 0.00 | 0.59 | 0.50 | 92 | 1009.3 |
| 20260507070048 | 53 | 332 | 0.0 | 2.6 | 0.00 | 0.59 | 0.50 | 92 | 1009.4 |
| 20260507065525 | 53 | 5 | 0.0 | 2.6 | 0.00 | 0.59 | 0.50 | 92 | 1009.2 |
| 20260507065005 | 54 | 58 | 0.9 | 3.5 | 0.00 | 0.59 | 0.50 | 92 | 1009.2 |
| 20260507064524 | 54 | 75 | 0.9 | 3.5 | 0.00 | 0.59 | 0.50 | 92 | 1009.0 |
| 20260507064100 | 54 | 67 | 0.0 | 1.7 | 0.00 | 0.59 | 0.50 | 93 | 1009.2 |
| 20260507064004 | 54 | 67 | 0.0 | 1.7 | 0.00 | 0.59 | 0.50 | 93 | 1009.2 |
| 20260507063540 | 54 | 147 | 0.0 | 2.6 | 0.00 | 0.59 | 0.50 | 93 | 1009.3 |
| 20260507063016 | 54 | 67 | 0.0 | 1.7 | 0.00 | 0.59 | 0.50 | 93 | 1009.2 |
| 20260507062551 | 54 | 59 | 0.0 | 1.7 | 0.00 | 0.59 | 0.50 | 93 | 1009.3 |
| 20260507062022 | 54 | 74 | 0.0 | 2.6 | 0.00 | 0.59 | 0.50 | 94 | 1009.2 |
| 20260507061506 | 54 | 107 | 0.0 | 2.6 | 0.00 | 0.59 | 0.50 | 93 | 1009.1 |
| 20260507061044 | 54 | 83 | 0.0 | 1.7 | 0.00 | 0.59 | 0.50 | 94 | 1009.0 |
| 20260507060525 | 55 | 83 | 0.0 | 1.7 | 0.00 | 0.59 | 0.50 | 94 | 1009.0 |
| 20260507060006 | 55 | 83 | 0.0 | 0.9 | 0.00 | 0.59 | 0.50 | 94 | 1009.3 |
| 20260507055545 | 55 | 83 | 0.0 | 1.7 | 0.00 | 0.59 | 0.50 | 94 | 1009.6 |
| 20260507055032 | 55 | 76 | 0.0 | 1.7 | 0.00 | 0.59 | 0.50 | 94 | 1009.4 |
| 20260507054515 | 55 | 69 | 0.0 | 2.6 | 0.00 | 0.59 | 0.50 | 93 | 1009.5 |
| 20260507054051 | 55 | 84 | 0.0 | 2.6 | 0.00 | 0.59 | 0.50 | 94 | 1009.4 |
| 20260507053526 | 55 | 152 | 0.0 | 2.6 | 0.01 | 0.59 | 0.50 | 94 | 1009.6 |
| 20260507053044 | 55 | 101 | 0.9 | 2.6 | 0.01 | 0.59 | 0.50 | 94 | 1009.6 |
| 20260507052529 | 55 | 186 | 0.9 | 2.6 | 0.01 | 0.59 | 0.50 | 94 | 1009.3 |
| 20260507052053 | 55 | 120 | 0.0 | 2.6 | 0.01 | 0.59 | 0.50 | 94 | 1008.9 |
| 20260507051538 | 56 | 90 | 0.0 | 2.6 | 0.01 | 0.59 | 0.50 | 94 | 1009.0 |
| 20260507051059 | 56 | 93 | 0.0 | 1.7 | 0.01 | 0.59 | 0.50 | 94 | 1009.1 |
| 20260507050521 | 56 | 165 | 0.0 | 2.6 | 0.01 | 0.59 | 0.50 | 94 | 1008.9 |
| 20260507050059 | 56 | 13 | 0.0 | 3.5 | 0.01 | 0.59 | 0.50 | 94 | 1009.0 |
| 20260507045524 | 57 | 293 | 0.9 | 3.5 | 0.01 | 0.59 | 0.50 | 94 | 1008.7 |
| 20260507045100 | 57 | 261 | 0.0 | 2.6 | 0.01 | 0.59 | 0.50 | 95 | 1008.5 |
| 20260507045002 | 57 | 292 | 0.0 | 2.6 | 0.01 | 0.59 | 0.50 | 95 | 1008.5 |
| 20260507044523 | 57 | 355 | 0.0 | 4.3 | 0.02 | 0.59 | 0.50 | 95 | 1008.5 |
| 20260507044059 | 58 | 351 | 0.9 | 4.3 | 0.04 | 0.59 | 0.50 | 95 | 1008.4 |
| 20260507044002 | 58 | 321 | 1.7 | 4.3 | 0.04 | 0.59 | 0.50 | 95 | 1008.4 |
| 20260507043525 | 58 | 332 | 0.9 | 2.6 | 0.04 | 0.57 | 0.49 | 95 | 1008.2 |
| 20260507043047 | 58 | 305 | 0.0 | 2.6 | 0.05 | 0.57 | 0.49 | 95 | 1008.0 |
| 20260507042527 | 58 | 332 | 0.9 | 2.6 | 0.05 | 0.57 | 0.49 | 95 | 1007.6 |
| 20260507042050 | 58 | 123 | 0.0 | 0.9 | 0.05 | 0.57 | 0.49 | 95 | 1007.0 |
| 20260507041541 | 59 | 115 | 0.0 | 1.7 | 0.05 | 0.57 | 0.49 | 95 | 1007.5 |
| 20260507041049 | 59 | 115 | 0.0 | 1.7 | 0.05 | 0.57 | 0.49 | 95 | 1007.7 |
| 20260507040530 | 59 | 206 | 0.9 | 2.6 | 0.06 | 0.57 | 0.49 | 95 | 1008.1 |
| 20260507040009 | 59 | 88 | 0.0 | 2.6 | 0.08 | 0.57 | 0.49 | 95 | 1008.3 |
| 20260507035526 | 59 | 222 | 0.0 | 1.7 | 0.11 | 0.57 | 0.49 | 95 | 1009.0 |
| 20260507035041 | 59 | 190 | 0.0 | 0.9 | 0.14 | 0.57 | 0.49 | 95 | 1008.9 |
| 20260507034527 | 59 | 245 | 0.0 | 0.9 | 0.16 | 0.56 | 0.48 | 95 | 1009.0 |
| 20260507034041 | 59 | 254 | 0.0 | 0.9 | 0.17 | 0.55 | 0.46 | 95 | 1009.1 |
| 20260507033521 | 59 | 254 | 0.0 | 0.9 | 0.16 | 0.53 | 0.44 | 95 | 1009.2 |
| 20260507033053 | 59 | 195 | 0.0 | 0.9 | 0.16 | 0.53 | 0.44 | 95 | 1008.8 |
| 20260507032556 | 60 | 175 | 0.0 | 0.9 | 0.16 | 0.53 | 0.44 | 95 | 1008.8 |
| 20260507032037 | 60 | 172 | 0.0 | 0.9 | 0.16 | 0.53 | 0.44 | 95 | 1008.7 |
| 20260507031556 | 60 | 172 | 0.0 | 0.0 | 0.17 | 0.53 | 0.44 | 95 | 1008.6 |
| 20260507031037 | 60 | 179 | 0.0 | 0.0 | 0.17 | 0.53 | 0.44 | 95 | 1008.5 |
| 20260507030556 | 60 | 95 | 0.0 | 1.7 | 0.16 | 0.52 | 0.43 | 95 | 1008.4 |
| 20260507030029 | 60 | 95 | 0.0 | 1.7 | 0.13 | 0.49 | 0.40 | 95 | 1008.2 |
| 20260507025517 | 60 | 148 | 0.0 | 0.9 | 0.11 | 0.47 | 0.38 | 95 | 1008.6 |
| 20260507025057 | 60 | 207 | 0.0 | 0.0 | 0.08 | 0.44 | 0.36 | 95 | 1008.4 |
| 20260507025001 | 60 | 207 | 0.0 | 0.0 | 0.07 | 0.43 | 0.35 | 95 | 1008.4 |
| 20260507024547 | 60 | 207 | 0.0 | 0.9 | 0.05 | 0.41 | 0.32 | 95 | 1008.6 |
| 20260507024018 | 60 | 207 | 0.0 | 0.9 | 0.01 | 0.37 | 0.28 | 94 | 1008.7 |
| 20260507023551 | 60 | 140 | 0.0 | 0.9 | 0.01 | 0.37 | 0.28 | 94 | 1008.4 |
| 20260507023035 | 60 | 140 | 0.0 | 1.7 | 0.01 | 0.37 | 0.28 | 94 | 1008.3 |
| 20260507022521 | 60 | 234 | 0.0 | 1.7 | 0.01 | 0.37 | 0.28 | 94 | 1008.3 |
| 20260507022050 | 60 | 94 | 0.0 | 1.7 | 0.01 | 0.37 | 0.28 | 94 | 1007.9 |
| 20260507021535 | 60 | 94 | 0.0 | 1.7 | 0.00 | 0.36 | 0.27 | 94 | 1007.5 |
| 20260507021019 | 60 | 121 | 0.0 | 0.9 | 0.00 | 0.36 | 0.27 | 93 | 1007.8 |
| 20260507020559 | 60 | 101 | 0.0 | 0.9 | 0.00 | 0.36 | 0.27 | 93 | 1007.7 |
| 20260507020503 | 60 | 102 | 0.0 | 0.9 | 0.00 | 0.36 | 0.27 | 93 | 1007.7 |
| 20260507020038 | 60 | 105 | 0.0 | 0.0 | 0.00 | 0.36 | 0.27 | 94 | 1007.7 |
| 20260507015519 | 60 | 161 | 0.0 | 0.0 | 0.00 | 0.36 | 0.27 | 94 | 1008.0 |
| 20260507015058 | 60 | 161 | 0.0 | 0.0 | 0.00 | 0.36 | 0.27 | 94 | 1008.0 |
| 20260507014535 | 61 | 161 | 0.0 | 0.0 | 0.00 | 0.36 | 0.27 | 93 | 1007.9 |
| 20260507014013 | 61 | 161 | 0.0 | 0.0 | 0.00 | 0.36 | 0.27 | 93 | 1007.8 |
| 20260507013547 | 61 | 98 | 0.0 | 0.0 | 0.00 | 0.36 | 0.27 | 92 | 1007.6 |
| 20260507013031 | 61 | 98 | 0.0 | 0.9 | 0.00 | 0.36 | 0.27 | 92 | 1007.4 |
| 20260507012505 | 61 | 98 | 0.0 | 0.9 | 0.01 | 0.36 | 0.27 | 92 | 1007.1 |
| 20260507012043 | 61 | 95 | 0.0 | 1.7 | 0.02 | 0.36 | 0.27 | 92 | 1007.1 |
| 20260507011518 | 62 | 88 | 0.0 | 1.7 | 0.03 | 0.36 | 0.27 | 92 | 1007.1 |
| 20260507011055 | 62 | 88 | 0.0 | 2.6 | 0.05 | 0.36 | 0.27 | 92 | 1007.1 |
| 20260507010535 | 62 | 82 | 0.9 | 2.6 | 0.07 | 0.36 | 0.27 | 92 | 1007.2 |
| 20260507010027 | 62 | 89 | 0.9 | 2.6 | 0.11 | 0.36 | 0.27 | 91 | 1007.6 |
| 20260507005549 | 62 | 83 | 0.0 | 1.7 | 0.14 | 0.36 | 0.27 | 91 | 1007.7 |
| 20260507005026 | 62 | 86 | 0.0 | 1.7 | 0.18 | 0.36 | 0.27 | 91 | 1007.8 |
| 20260507004503 | 63 | 75 | 0.0 | 1.7 | 0.22 | 0.36 | 0.27 | 91 | 1007.8 |
| 20260507004043 | 63 | 92 | 0.0 | 2.6 | 0.25 | 0.36 | 0.27 | 92 | 1007.8 |
| 20260507003519 | 63 | 154 | 0.0 | 2.6 | 0.26 | 0.36 | 0.27 | 91 | 1008.0 |
| 20260507003057 | 63 | 84 | 0.9 | 2.6 | 0.26 | 0.36 | 0.27 | 91 | 1007.7 |
| 20260507002535 | 63 | 102 | 0.0 | 2.6 | 0.25 | 0.35 | 0.26 | 92 | 1007.7 |
| 20260507002013 | 63 | 92 | 0.0 | 0.9 | 0.24 | 0.34 | 0.25 | 91 | 1007.7 |
| 20260507001608 | 63 | 107 | 0.0 | 2.6 | 0.23 | 0.33 | 0.24 | 91 | 1007.7 |
| 20260507001029 | 64 | 113 | 0.9 | 2.6 | 0.21 | 0.31 | 0.22 | 91 | 1007.5 |
| 20260507000503 | 64 | 92 | 0.0 | 1.7 | 0.18 | 0.28 | 0.19 | 91 | 1007.5 |
| 20260507000041 | 64 | 92 | 0.0 | 1.7 | 0.16 | 0.26 | 0.17 | 90 | 1007.6 |
| 20260506235519 | 65 | 211 | 0.0 | 2.6 | 0.11 | 0.21 | 0.13 | 89 | 1007.5 |
| 20260506235053 | 66 | 186 | 1.7 | 2.6 | 0.08 | 0.18 | 0.09 | 87 | 1007.3 |
| 20260506234534 | 67 | 140 | 0.0 | 2.6 | 0.04 | 0.14 | 0.06 | 85 | 1007.1 |
| 20260506234050 | 67 | 40 | 0.0 | 0.0 | 0.00 | 0.10 | 0.02 | 82 | 1007.1 |
| 20260506233535 | 68 | 86 | 0.0 | 0.0 | 0.00 | 0.10 | 0.01 | 80 | 1006.5 |
| 20260506233020 | 68 | 111 | 0.0 | 0.0 | 0.00 | 0.10 | 0.01 | 79 | 1006.7 |
| 20260506232506 | 68 | 198 | 0.0 | 0.9 | 0.00 | 0.10 | 0.01 | 80 | 1006.7 |
| 20260506232046 | 68 | 225 | 0.0 | 0.0 | 0.00 | 0.10 | 0.01 | 80 | 1006.6 |
| 20260506231536 | 68 | 188 | 0.0 | 1.7 | 0.00 | 0.10 | 0.01 | 80 | 1006.4 |
| 20260506231025 | 68 | 201 | 0.0 | 1.7 | 0.00 | 0.10 | 0.01 | 80 | 1006.5 |
| 20260506230547 | 68 | 337 | 0.0 | 0.9 | 0.00 | 0.10 | 0.01 | 80 | 1006.3 |
| 20260506230032 | 68 | 335 | 0.0 | 0.9 | 0.00 | 0.10 | 0.01 | 82 | 1006.4 |
| 20260506225513 | 68 | 193 | 0.0 | 0.0 | 0.01 | 0.10 | 0.01 | 84 | 1006.4 |
| 20260506225052 | 68 | 193 | 0.0 | 0.9 | 0.01 | 0.10 | 0.01 | 83 | 1006.1 |
| 20260506224549 | 68 | 193 | 0.0 | 1.7 | 0.01 | 0.10 | 0.01 | 81 | 1006.2 |
| 20260506224026 | 68 | 191 | 0.0 | 2.6 | 0.01 | 0.10 | 0.01 | 81 | 1006.1 |
| 20260506223558 | 68 | 194 | 0.0 | 2.6 | 0.01 | 0.10 | 0.01 | 82 | 1006.0 |
| 20260506223507 | 68 | 173 | 0.0 | 2.6 | 0.01 | 0.10 | 0.01 | 80 | 1005.9 |
| 20260506223039 | 69 | 236 | 0.0 | 0.9 | 0.01 | 0.10 | 0.01 | 82 | 1006.0 |
| 20260506222523 | 68 | 235 | 0.0 | 1.7 | 0.01 | 0.10 | 0.01 | 80 | 1006.0 |
| 20260506222059 | 68 | 229 | 0.0 | 2.6 | 0.01 | 0.10 | 0.01 | 79 | 1006.0 |
| 20260506221538 | 69 | 134 | 0.0 | 1.7 | 0.01 | 0.10 | 0.01 | 83 | 1006.0 |
| 20260506221018 | 69 | 165 | 0.0 | 1.7 | 0.01 | 0.10 | 0.01 | 81 | 1005.9 |
| 20260506220555 | 70 | 148 | 0.0 | 1.7 | 0.01 | 0.10 | 0.01 | 79 | 1006.0 |
| 20260506220043 | 70 | 69 | 0.0 | 0.9 | 0.01 | 0.10 | 0.01 | 79 | 1006.0 |
| 20260506215514 | 71 | 69 | 0.0 | 2.6 | 0.00 | 0.09 | 0.00 | 75 | 1006.0 |
| 20260506215048 | 71 | 171 | 0.0 | 2.6 | 0.00 | 0.09 | 0.00 | 73 | 1006.0 |